User: anonymous   Login
Location: Cisewo
(53.3833°N, 14.9000°E)
Time: 12:38:14
(UTC+00:00)
Language:

First-Move - Orbit

View from above orbital plane
View from above orbital plane
View from above satellite
View from above satellite

Ground track
Ground track

The orbit data is extracted from the following two-line orbital elements,

1 39439U 13066Z   21262.89750288  .00000548  00000-0  71948-4 0  9994
2 39439  97.6066 244.0517 0063546 207.6875 152.0952 14.82757696421945
Epoch (UTC): 19 September 2021 21:32:24
Eccentricity: 0.0063546
inclination: 97.6066°
perigee height: 576 km
apogee height: 665 km
right ascension of ascending node: 244.0517°
argument of perigee: 207.6875°
revolutions per day: 14.82757696
mean anomaly at epoch: 152.0952°
orbit number at epoch: 42194

The dashed part of the orbit path shows where the satellite is in the earth's shadow,  

DLR